Location: Marysville Observatory
(48.1092°N, 122.1645°W)
Time: 16:07:11
(UTC-08:00)

Amateur Radio Satellites - All Passes

Search period start: 22 November 2017 15:37
Search period end: 23 November 2017 15:37
Location: Marysville Observatory, 48.1092°N, 122.1645°W

Satellite Date Start Highest point End Downlink Frequencies (MHz)
Time Altitude Azimuth
DX 1 22 Nov 15:42:16 15:44:39 14° 302° (WNW) 15:47:00 434.975-435.025
XW-2C 22 Nov 15:56:43 15:58:01 11° 60° (ENE) 15:59:18 145.795 - 145.815
LilacSat-2 22 Nov 16:00:06 16:01:59 13° 61° (ENE) 16:03:53 437.200
XW-2F 22 Nov 16:05:19 16:07:06 13° 61° (ENE) 16:08:53 145.980 - 146.000
BEESAT 22 Nov 16:14:57 16:19:38 58° 289° (WNW) 16:24:17 436.000
NO-84 22 Nov 16:23:02 16:26:48 53° 337° (NNW) 16:30:49 435.350 FM
MOZHAYETS 4 22 Nov 16:23:07 16:27:16 35° 293° (WNW) 16:31:26
ITUPSAT 1 22 Nov 16:25:51 16:30:26 48° 291° (WNW) 16:34:59 437.325
KKS-1 22 Nov 16:26:58 16:29:56 17° 91° (E) 16:32:53 437.445
KAITUO 1B 22 Nov 16:29:24 16:31:57 18° 64° (ENE) 16:34:33 145.475/437.950
DOVE 4 22 Nov 16:30:18 16:35:23 70° 259° (WSW) 16:40:42 437.250
YUBILEINY 22 Nov 16:31:57 16:40:53 82° 80° (E) 16:49:44 435.215
RS-15 22 Nov 16:35:28 16:43:04 19° 96° (E) 16:50:38 29.354- 29.394
ITAMSAT 1 22 Nov 16:36:09 16:38:49 14° 273° (W) 16:41:29 435.822/435.867
CUTE-I 22 Nov 16:37:31 16:42:21 35° 64° (ENE) 16:47:12 437.470
CUBESAT XI-V 22 Nov 16:38:30 16:43:13 89° 101° (E) 16:47:56 437.345
XW-2D 22 Nov 16:47:34 16:51:03 38° 70° (ENE) 16:54:34 145.860 - 145.880
STARS 22 Nov 16:47:43 16:49:07 11° 87° (E) 16:50:31 437.465
AO-7 22 Nov 16:55:00 16:59:11 15° 276° (W) 17:03:25 .
XW-2B 22 Nov 17:02:16 17:05:55 54° 73° (ENE) 17:09:35 145.730 - 145.750
SEEDS 22 Nov 17:04:04 17:05:27 11° 57° (ENE) 17:06:51 437.485
HO-68 22 Nov 17:05:44 17:12:14 38° 59° (ENE) 17:18:45 435.675
NUDT-PHONESAT 22 Nov 17:09:57 17:13:27 46° 72° (ENE) 17:16:59 437.300
XW-2C 22 Nov 17:27:55 17:31:38 74° 258° (WSW) 17:35:24 145.795 - 145.815
LilacSat-2 22 Nov 17:32:04 17:35:47 61° 259° (W) 17:39:33 437.200
XW-2F 22 Nov 17:37:03 17:40:44 62° 259° (W) 17:44:26 145.980 - 146.000
CUBEBUG 2 22 Nov 17:47:38 17:51:34 30° 67° (ENE) 17:55:24 437.445
NO-84 22 Nov 18:01:09 18:04:46 31° 358° (N) 18:08:33 435.350 FM
KAITUO 1B 22 Nov 18:02:12 18:05:40 39° 262° (W) 18:09:11 145.475/437.950
KKS-1 22 Nov 18:02:27 18:06:51 57° 289° (WNW) 18:11:13 437.445
XW-2A 22 Nov 18:06:27 18:08:49 18° 66° (ENE) 18:11:12 145.665 - 145.685
CUTE 1.7 + AOD 2 22 Nov 18:09:13 18:13:24 74° 75° (ENE) 18:17:38 437.475
DOVE 4 22 Nov 18:13:21 18:14:02 10° 278° (W) 18:14:45 437.250
STRAND 1 22 Nov 18:16:04 18:18:05 12° 86° (E) 18:20:05 437.568
CUTE-I 22 Nov 18:17:21 18:22:21 38° 263° (W) 18:27:23 437.470
CUBESAT XI-V 22 Nov 18:17:30 18:19:55 14° 303° (WNW) 18:22:20 437.345
STARS 22 Nov 18:21:39 18:26:05 85° 284° (WNW) 18:30:27 437.465
XW-2D 22 Nov 18:22:45 18:25:23 18° 268° (W) 18:28:02 145.860 - 145.880
ZACube-1 22 Nov 18:27:42 18:31:06 24° 65° (ENE) 18:34:29 437.345
YUBILEINY 22 Nov 18:29:56 18:36:39 25° 282° (WNW) 18:43:20 435.215
SEEDS 22 Nov 18:36:16 18:40:27 88° 76° (ENE) 18:44:40 437.485
AAUSAT CUBESAT 2 22 Nov 18:37:56 18:41:50 42° 70° (ENE) 18:45:47 437.432
XW-2B 22 Nov 18:38:34 18:40:26 13° 271° (W) 18:42:17 145.730 - 145.750
UWE-3 22 Nov 18:40:20 18:44:39 55° 72° (ENE) 18:48:52 435.000/436.395/437.385
RS-15 22 Nov 18:41:03 18:53:12 69° 119° (ESE) 19:05:15 29.354- 29.394
NUDT-PHONESAT 22 Nov 18:45:27 18:47:33 15° 269° (W) 18:49:40 437.300
HO-68 22 Nov 18:52:46 18:59:45 53° 259° (W) 19:06:48 435.675
AO-73 22 Nov 19:16:39 19:20:51 63° 74° (ENE) 19:25:01 145.935
CUBEBUG 2 22 Nov 19:24:00 19:28:07 33° 264° (W) 19:32:09 437.445
Oscar 11 22 Nov 19:30:57 19:35:11 61° 73° (ENE) 19:39:27 .
XW-2A 22 Nov 19:38:22 19:41:20 30° 263° (W) 19:44:20 145.665 - 145.685
Max Valier Satellite 22 Nov 19:38:33 19:39:30 11° 60° (ENE) 19:40:26 145.860
NO-84 22 Nov 19:38:51 19:42:50 42° 18° (NNE) 19:46:55 435.350 FM
nSIGHT-1 22 Nov 19:44:26 19:46:18 14° 137° (SE) 19:48:09 .
CUTE 1.7 + AOD 2 22 Nov 19:48:04 19:49:46 12° 273° (W) 19:51:28 437.475
STRAND 1 22 Nov 19:52:54 19:58:03 85° 104° (ESE) 20:03:10 437.568
STARS 22 Nov 19:59:59 20:01:41 12° 304° (NW) 20:03:23 437.465
FO-29 22 Nov 20:02:17 20:09:34 39° 93° (E) 20:16:26 435.910
ZACube-1 22 Nov 20:03:11 20:07:13 39° 262° (W) 20:11:12 437.345
AAUSAT CUBESAT 2 22 Nov 20:14:23 20:17:28 20° 268° (W) 20:20:36 437.432
UWE-3 22 Nov 20:18:32 20:21:25 17° 269° (W) 20:24:17 435.000/436.395/437.385
DELFI C3 22 Nov 20:26:32 20:30:23 50° 72° (ENE) 20:34:17 145.870
ISS 22 Nov 20:33:08 20:36:02 29° 144° (SE) 20:38:56 437.550
RS-15 22 Nov 20:54:25 21:06:25 53° 326° (NW) 21:18:13 29.354- 29.394
AO-73 22 Nov 20:55:09 20:57:30 14° 271° (W) 20:59:49 145.935
EO-88 22 Nov 21:03:05 21:06:39 64° 74° (ENE) 21:10:16 145.990 - 145.960
ESTCUBE 1 22 Nov 21:03:08 21:04:36 11° 55° (NE) 21:06:04 437.505/2401.250
Max Valier Satellite 22 Nov 21:09:06 21:12:45 75° 257° (WSW) 21:16:25 145.860
Oscar 11 22 Nov 21:09:11 21:11:44 15° 271° (W) 21:14:17 .
NO-84 22 Nov 21:16:12 21:20:23 61° 218° (SW) 21:24:35 435.350 FM
nSIGHT-1 22 Nov 21:18:52 21:22:04 75° 156° (SSE) 21:25:18 .
LO-87 22 Nov 21:22:51 21:25:09 16° 64° (ENE) 21:27:27 145.935 - 145.965
STRAND 1 22 Nov 21:33:24 21:36:34 17° 304° (NW) 21:39:45 437.568
SO-50 22 Nov 21:36:44 21:41:08 58° 123° (ESE) 21:45:35 436.795
O/OREOS (USA 219) 22 Nov 21:46:57 21:51:04 32° 54° (NE) 21:55:08 437.305
FO-29 22 Nov 21:47:09 21:54:47 55° 294° (WNW) 22:02:03 435.910
UNISAT 6 22 Nov 21:53:03 21:57:17 56° 101° (E) 22:01:27 437.425
TIGRISAT 22 Nov 21:56:51 22:01:05 56° 101° (E) 22:05:14 435.000
DELFI C3 22 Nov 22:02:57 22:05:25 16° 270° (W) 22:07:55 145.870
ISS 22 Nov 22:09:04 22:12:21 66° 343° (NNW) 22:15:37 437.550
PRISM 22 Nov 22:17:13 22:21:04 35° 97° (E) 22:24:53 437.425
ESTCUBE 1 22 Nov 22:36:09 22:40:37 78° 76° (ENE) 22:45:08 437.505/2401.250
EO-88 22 Nov 22:39:53 22:40:43 11° 272° (W) 22:41:32 145.990 - 145.960
VELOX 1 22 Nov 22:49:14 22:52:35 21° 62° (ENE) 22:55:57 145.980
EO-79 22 Nov 22:54:46 22:56:05 11° 87° (E) 22:57:26 145.935-145.965
LO-87 22 Nov 22:54:47 22:58:15 43° 261° (W) 23:01:43 145.935 - 145.965
nSIGHT-1 22 Nov 22:55:21 22:58:28 44° 354° (N) 23:01:34 .
NO-84 22 Nov 22:55:21 22:57:03 12° 235° (SW) 22:58:43 435.350 FM
NANOSAT C BR1 22 Nov 22:57:12 22:57:57 10° 87° (E) 22:58:42 145.865
POLYITAN 1 22 Nov 23:09:31 23:12:11 16° 90° (E) 23:14:49 437.675
RS-15 22 Nov 23:11:21 23:22:20 36° 358° (N) 23:32:57 29.354- 29.394
AIST 2D 22 Nov 23:16:33 23:20:02 53° 100° (E) 23:23:29 435.315
SO-50 22 Nov 23:18:04 23:21:54 27° 324° (NW) 23:25:48 436.795
O/OREOS (USA 219) 22 Nov 23:26:22 23:30:29 34° 254° (WSW) 23:34:33 437.305
DX 1 22 Nov 23:29:32 23:31:56 15° 58° (ENE) 23:34:20 434.975-435.025
SPROUT 22 Nov 23:30:10 23:34:26 72° 74° (ENE) 23:38:43 437.525
UNISAT 6 22 Nov 23:30:44 23:33:35 18° 299° (WNW) 23:36:25 437.425
QB50P2 22 Nov 23:32:13 23:35:57 30° 96° (E) 23:39:40 145.880/145.840
FO-29 22 Nov 23:33:51 23:38:08 16° 315° (NW) 23:42:21 435.910
TIGRISAT 22 Nov 23:34:32 23:37:22 18° 299° (WNW) 23:40:11 435.000
PCSat 22 Nov 23:36:03 23:41:00 38° 114° (ESE) 23:46:01 145.827
ISS 22 Nov 23:45:58 23:49:07 42° 2° (N) 23:52:16 437.550
PRISM 22 Nov 23:52:44 23:56:11 25° 295° (WNW) 23:59:38 437.425
UKube-1 23 Nov 00:06:22 00:09:33 20° 62° (ENE) 00:12:46 .
50 SAT 23 Nov 00:07:42 00:10:26 25° 68° (ENE) 00:13:10 437.505
ESTCUBE 1 23 Nov 00:15:57 00:17:59 13° 272° (W) 00:20:03 437.505/2401.250
DUCHIFAT 1 23 Nov 00:18:17 00:22:27 64° 102° (ESE) 00:26:34 145.980
VELOX 1 23 Nov 00:24:24 00:28:43 49° 261° (W) 00:33:04 145.980
EO-79 23 Nov 00:28:11 00:32:24 79° 287° (WNW) 00:36:36 145.935-145.965
NANOSAT C BR1 23 Nov 00:30:03 00:34:15 85° 285° (WNW) 00:38:25 145.865
nSIGHT-1 23 Nov 00:31:51 00:35:01 54° 14° (NNE) 00:38:10 .
POLYITAN 1 23 Nov 00:44:12 00:48:18 54° 288° (WNW) 00:52:22 437.675
AIST 2D 23 Nov 00:51:02 00:52:46 13° 298° (WNW) 00:54:31 435.315
SO-50 23 Nov 01:02:28 01:03:54 11° 348° (NNW) 01:05:21 436.795
BUGSAT 1 23 Nov 01:02:51 01:06:46 48° 100° (E) 01:10:38 437.445
DX 1 23 Nov 01:03:09 01:07:32 78° 257° (WSW) 01:11:58 434.975-435.025
Oscar 19 23 Nov 01:05:51 01:10:26 31° 95° (E) 01:15:00 437.125/150
QB50P2 23 Nov 01:08:03 01:11:42 29° 294° (WNW) 01:15:20 145.880/145.840
SPROUT 23 Nov 01:08:51 01:10:49 13° 272° (W) 01:12:48 437.525
BEESAT 3 23 Nov 01:11:23 01:11:55 10° 109° (ESE) 01:12:27 437.485
PCSat 23 Nov 01:19:15 01:24:23 42° 314° (NW) 01:29:34 145.827
ISS 23 Nov 01:22:33 01:25:50 84° 22° (NNE) 01:29:07 437.550
RS-15 23 Nov 01:26:39 01:38:22 50° 32° (NNE) 01:49:26 29.354- 29.394
50 SAT 23 Nov 01:40:00 01:42:29 20° 265° (W) 01:45:00 437.505
UKube-1 23 Nov 01:41:03 01:45:15 50° 260° (W) 01:49:29 .
Gurwin Techsat 1B 23 Nov 01:47:19 01:52:32 51° 100° (E) 01:57:42 435.225
BEESAT 23 Nov 01:47:28 01:51:43 33° 65° (ENE) 01:55:59 436.000
MOZHAYETS 4 23 Nov 01:51:05 01:55:21 41° 69° (ENE) 01:59:39
DUCHIFAT 1 23 Nov 01:55:09 01:57:38 16° 300° (WNW) 02:00:07 145.980
ITUPSAT 1 23 Nov 01:58:21 02:02:49 40° 67° (ENE) 02:07:17 437.325
M-CUBED/EXP-1 PRIME 23 Nov 02:01:23 02:04:01 15° 95° (E) 02:06:40 437.505
EO-79 23 Nov 02:06:40 02:07:25 10° 304° (NW) 02:08:10 145.935-145.965
NANOSAT C BR1 23 Nov 02:08:05 02:09:15 11° 303° (WNW) 02:10:26 145.865
nSIGHT-1 23 Nov 02:08:11 02:11:13 40° 213° (SSW) 02:14:14 .
CUBESAT XI-V 23 Nov 02:09:36 02:12:43 18° 60° (ENE) 02:15:50 437.345
BEESAT 2 23 Nov 02:25:25 02:28:12 18° 113° (ESE) 02:31:00 435.950
BUGSAT 1 23 Nov 02:39:00 02:41:48 18° 298° (WNW) 02:44:35 437.445
BEESAT 3 23 Nov 02:44:44 02:48:45 84° 127° (SE) 02:52:46 437.485
SO-50 23 Nov 02:44:49 02:46:26 12° 13° (NNE) 02:48:03 436.795
Oscar 19 23 Nov 02:45:01 02:49:50 40° 294° (WNW) 02:54:39 437.125/150
AO-7 23 Nov 02:54:13 03:01:40 34° 96° (E) 03:09:03 .
AO-85 23 Nov 02:55:45 02:57:42 13° 110° (ESE) 02:59:43 145.980
ISS 23 Nov 02:59:29 03:02:01 21° 220° (SW) 03:04:32 437.550
ITAMSAT 1 23 Nov 03:03:12 03:07:22 24° 93° (E) 03:11:29 435.822/435.867
PCSat 23 Nov 03:06:20 03:09:16 14° 338° (NNW) 03:12:12 145.827
BEESAT 23 Nov 03:25:08 03:29:27 34° 263° (W) 03:33:48 436.000
Gurwin Techsat 1B 23 Nov 03:27:48 03:32:12 27° 299° (WNW) 03:36:36 435.225
KKS-1 23 Nov 03:27:58 03:31:40 26° 64° (ENE) 03:35:23 437.445
MOZHAYETS 4 23 Nov 03:28:57 03:32:40 24° 267° (W) 03:36:25
M-CUBED/EXP-1 PRIME 23 Nov 03:34:16 03:38:49 77° 291° (WNW) 03:43:27 437.505
ITUPSAT 1 23 Nov 03:36:41 03:40:45 27° 265° (W) 03:44:51 437.325
RS-15 23 Nov 03:39:49 03:51:38 72° 240° (WSW) 04:02:49 29.354- 29.394
YUBILEINY 23 Nov 03:44:17 03:50:01 20° 74° (ENE) 03:55:48 435.215
CUBESAT XI-V 23 Nov 03:45:03 03:49:36 64° 259° (WSW) 03:54:14 437.345
STARS 23 Nov 03:46:47 03:49:45 18° 60° (ENE) 03:52:44 437.465
BEESAT 2 23 Nov 04:01:33 04:05:32 58° 312° (NW) 04:09:33 435.950
BEESAT 3 23 Nov 04:23:56 04:26:48 19° 327° (NNW) 04:29:41 437.485
SO-50 23 Nov 04:24:23 04:28:24 28° 37° (NE) 04:32:27 436.795
DOVE 4 23 Nov 04:26:06 04:30:34 28° 92° (E) 04:34:49 437.250
AO-85 23 Nov 04:33:34 04:37:28 72° 310° (NW) 04:41:38 145.980
ITAMSAT 1 23 Nov 04:42:03 04:47:09 54° 291° (WNW) 04:52:11 435.822/435.867
AO-7 23 Nov 04:46:41 04:54:55 65° 296° (WNW) 05:03:09 .
PCSat 23 Nov 04:54:46 04:55:13 10° 4° (N) 04:55:40 145.827
LilacSat-2 23 Nov 05:03:25 05:04:42 11° 88° (E) 05:06:00 437.200
KKS-1 23 Nov 05:03:49 05:08:02 40° 262° (W) 05:12:17 437.445
XW-2F 23 Nov 05:07:30 05:08:24 11° 88° (E) 05:09:19 145.980 - 146.000
M-CUBED/EXP-1 PRIME 23 Nov 05:10:21 05:12:30 13° 309° (NW) 05:14:39 437.505
STARS 23 Nov 05:21:16 05:25:39 62° 259° (WSW) 05:30:04 437.465
KAITUO 1B 23 Nov 05:30:14 05:32:30 15° 91° (E) 05:34:47 145.475/437.950
STRAND 1 23 Nov 05:34:18 05:38:34 27° 62° (ENE) 05:42:51 437.568
YUBILEINY 23 Nov 05:36:40 05:45:26 83° 96° (E) 05:54:18 435.215
BEESAT 2 23 Nov 05:41:52 05:44:05 14° 333° (NNW) 05:46:19 435.950
XW-2D 23 Nov 05:50:09 05:53:41 34° 97° (E) 05:57:11 145.860 - 145.880
CUTE 1.7 + AOD 2 23 Nov 05:53:10 05:53:48 10° 86° (E) 05:54:25 437.475
RS-15 23 Nov 05:54:24 06:01:42 19° 264° (W) 06:08:50 29.354- 29.394
DOVE 4 23 Nov 06:03:28 06:08:23 44° 292° (WNW) 06:13:05 437.250
SO-50 23 Nov 06:04:36 06:09:10 58° 236° (WSW) 06:13:46 436.795
XW-2B 23 Nov 06:04:56 06:08:39 49° 99° (E) 06:12:22 145.730 - 145.750
NUDT-PHONESAT 23 Nov 06:09:52 06:13:23 38° 98° (E) 06:16:53 437.300
AO-85 23 Nov 06:16:05 06:18:40 16° 333° (NNW) 06:21:21 145.980
HO-68 23 Nov 06:16:43 06:22:39 27° 92° (E) 06:28:32 435.675
SEEDS 23 Nov 06:18:11 06:19:50 12° 87° (E) 06:21:29 437.485
FO-29 23 Nov 06:18:22 06:24:07 28° 55° (NE) 06:30:17 435.910
CUTE-I 23 Nov 06:30:05 06:35:27 65° 102° (ESE) 06:40:46 437.470
XW-2C 23 Nov 06:30:39 06:34:28 82° 287° (WNW) 06:38:18 145.795 - 145.815
LilacSat-2 23 Nov 06:35:35 06:39:25 68° 286° (WNW) 06:43:14 437.200
PCSat 23 Nov 06:37:04 06:40:56 19° 30° (NNE) 06:44:46 145.827
XW-2F 23 Nov 06:39:11 06:42:58 71° 285° (WNW) 06:46:45 145.980 - 146.000
AO-7 23 Nov 06:40:40 06:46:12 20° 319° (NW) 06:51:45 .
XW-2A 23 Nov 06:57:19 06:58:37 12° 90° (E) 06:59:54 145.665 - 145.685
KAITUO 1B 23 Nov 07:03:06 07:06:45 47° 288° (WNW) 07:10:22 145.475/437.950
CUBEBUG 2 23 Nov 07:10:42 07:14:35 37° 97° (E) 07:18:26 437.445
STRAND 1 23 Nov 07:12:32 07:17:30 48° 261° (W) 07:22:31 437.568
UNISAT 6 23 Nov 07:22:00 07:23:16 11° 56° (NE) 07:24:32 437.425
XW-2D 23 Nov 07:24:43 07:27:40 22° 295° (WNW) 07:30:37 145.860 - 145.880
TIGRISAT 23 Nov 07:25:43 07:26:58 11° 56° (NE) 07:28:12 435.000
CUTE 1.7 + AOD 2 23 Nov 07:25:57 07:30:15 89° 289° (WNW) 07:34:32 437.475
YUBILEINY 23 Nov 07:36:16 07:43:23 27° 300° (WNW) 07:50:35 435.215
XW-2B 23 Nov 07:40:03 07:42:29 16° 297° (WNW) 07:44:55 145.730 - 145.750
NUDT-PHONESAT 23 Nov 07:44:19 07:46:59 19° 295° (WNW) 07:49:38 437.300
ZACube-1 23 Nov 07:47:32 07:51:09 28° 95° (E) 07:54:47 437.345
AAUSAT CUBESAT 2 23 Nov 07:51:17 07:55:22 48° 99° (E) 07:59:25 437.432
SEEDS 23 Nov 07:51:47 07:56:03 77° 285° (WNW) 08:00:18 437.485
FO-29 23 Nov 08:01:28 08:08:20 79° 257° (WSW) 08:16:01 435.910
UWE-3 23 Nov 08:02:21 08:06:31 75° 102° (ESE) 08:10:39 435.000/436.395/437.385
HO-68 23 Nov 08:03:49 08:10:59 70° 292° (WNW) 08:18:05 435.675
CUTE-I 23 Nov 08:10:58 08:15:03 22° 301° (WNW) 08:19:06 437.470
PCSat 23 Nov 08:19:54 08:25:21 69° 53° (NE) 08:30:45 145.827
XW-2A 23 Nov 08:28:19 08:31:35 49° 288° (WNW) 08:34:52 145.665 - 145.685
AO-73 23 Nov 08:36:43 08:40:53 83° 105° (ESE) 08:45:03 145.935
CUBEBUG 2 23 Nov 08:47:42 08:51:02 23° 296° (WNW) 08:54:20 437.445
Oscar 11 23 Nov 08:50:19 08:54:40 78° 102° (ESE) 08:59:00 .
UNISAT 6 23 Nov 08:54:43 08:59:15 77° 73° (ENE) 09:03:42 437.425
TIGRISAT 23 Nov 08:58:23 09:02:54 76° 75° (ENE) 09:07:20 435.000
BEESAT 2 23 Nov 09:01:58 09:03:16 11° 21° (NNE) 09:04:33 435.950
CUTE 1.7 + AOD 2 23 Nov 09:03:48 09:05:24 12° 302° (WNW) 09:07:00 437.475
PRISM 23 Nov 09:09:24 09:13:16 40° 69° (ENE) 09:17:11 437.425
BEESAT 3 23 Nov 09:21:03 09:24:22 25° 38° (NE) 09:27:39 437.485
ZACube-1 23 Nov 09:23:48 09:27:26 30° 293° (WNW) 09:31:03 437.345
AAUSAT CUBESAT 2 23 Nov 09:27:28 09:30:30 20° 297° (WNW) 09:33:31 437.432
SEEDS 23 Nov 09:30:19 09:30:58 10° 304° (WNW) 09:31:36 437.485
DELFI C3 23 Nov 09:34:08 09:38:03 50° 99° (E) 09:41:56 145.870
UWE-3 23 Nov 09:40:27 09:42:25 13° 301° (WNW) 09:44:23 435.000/436.395/437.385
AO-85 23 Nov 09:41:00 09:43:20 14° 23° (NNE) 09:45:44 145.980
EO-79 23 Nov 09:50:01 09:52:27 15° 60° (ENE) 09:54:54 145.935-145.965
FO-29 23 Nov 09:50:25 09:54:43 17° 279° (W) 09:59:16 435.910
NANOSAT C BR1 23 Nov 09:51:48 09:54:02 14° 59° (ENE) 09:56:16 145.865
HO-68 23 Nov 09:52:57 09:57:30 18° 313° (NW) 10:02:04 435.675
AIST 2D 23 Nov 09:53:55 09:57:02 32° 70° (ENE) 10:00:11 435.315
EO-88 23 Nov 10:01:24 10:04:59 50° 100° (E) 10:08:32 145.990 - 145.960
PCSat 23 Nov 10:04:10 10:08:14 22° 252° (WSW) 10:12:17 145.827
POLYITAN 1 23 Nov 10:05:13 10:08:21 21° 63° (ENE) 10:11:29 437.675
Max Valier Satellite 23 Nov 10:08:51 10:12:32 90° 107° (ESE) 10:16:13 145.860
FALCONSAT 3 23 Nov 10:11:17 10:12:23 11° 174° (S) 10:13:29 435.103
AO-73 23 Nov 10:14:50 10:16:31 12° 301° (WNW) 10:18:12 145.935
LO-87 23 Nov 10:19:41 10:20:45 11° 89° (E) 10:21:48 145.935 - 145.965
ESTCUBE 1 23 Nov 10:26:34 10:28:40 13° 88° (E) 10:30:46 437.505/2401.250
QB50P2 23 Nov 10:27:50 10:31:43 36° 68° (ENE) 10:35:36 145.880/145.840
Oscar 11 23 Nov 10:27:59 10:30:13 14° 301° (WNW) 10:32:28 .
UNISAT 6 23 Nov 10:34:19 10:36:27 13° 272° (W) 10:38:36 437.425
TIGRISAT 23 Nov 10:37:57 10:40:06 13° 272° (W) 10:42:13 435.000
BEESAT 2 23 Nov 10:38:17 10:42:06 38° 43° (NE) 10:45:51 435.950
PRISM 23 Nov 10:45:29 10:48:41 21° 267° (W) 10:51:55 437.425
Oscar 19 23 Nov 10:51:03 10:52:44 12° 52° (NE) 10:54:24 437.125/150
BEESAT 3 23 Nov 10:58:17 11:02:08 50° 238° (WSW) 11:05:54 437.485
DELFI C3 23 Nov 11:09:46 11:12:26 17° 298° (WNW) 11:15:06 145.870
DUCHIFAT 1 23 Nov 11:12:54 11:17:05 74° 75° (ENE) 11:21:18 145.980
AO-85 23 Nov 11:20:26 11:24:49 44° 45° (NE) 11:29:31 145.980
EO-79 23 Nov 11:23:29 11:27:43 68° 258° (WSW) 11:31:57 145.935-145.965
NANOSAT C BR1 23 Nov 11:24:58 11:29:12 74° 257° (WSW) 11:33:25 145.865
AIST 2D 23 Nov 11:27:49 11:30:18 18° 268° (W) 11:32:49 435.315
Gurwin Techsat 1B 23 Nov 11:34:10 11:37:56 20° 58° (ENE) 11:41:43 435.225
EO-88 23 Nov 11:36:07 11:38:15 15° 297° (WNW) 11:40:21 145.990 - 145.960
POLYITAN 1 23 Nov 11:39:45 11:43:51 46° 261° (W) 11:47:56 437.675
FALCONSAT 3 23 Nov 11:50:03 11:50:33 10° 190° (S) 11:51:02 435.103
LO-87 23 Nov 11:51:02 11:54:32 58° 286° (WNW) 11:58:00 145.935 - 145.965
BUGSAT 1 23 Nov 11:55:20 11:59:25 54° 72° (ENE) 12:03:28 437.445
ESTCUBE 1 23 Nov 12:01:29 12:06:02 79° 286° (WNW) 12:10:34 437.505/2401.250
QB50P2 23 Nov 12:04:04 12:07:34 25° 266° (W) 12:11:05 145.880/145.840
O/OREOS (USA 219) 23 Nov 12:04:04 12:07:07 18° 100° (E) 12:10:12 437.305
AO-7 23 Nov 12:08:16 12:13:41 20° 41° (NE) 12:19:06 .
VELOX 1 23 Nov 12:10:58 12:14:35 24° 93° (E) 12:18:10 145.980
BEESAT 2 23 Nov 12:16:13 12:19:43 29° 243° (WSW) 12:23:11 435.950
Oscar 19 23 Nov 12:26:02 12:31:04 64° 71° (ENE) 12:36:10 437.125/150
SPROUT 23 Nov 12:47:46 12:52:02 85° 102° (ESE) 12:56:17 437.525
DX 1 23 Nov 12:49:04 12:51:26 14° 89° (E) 12:53:46 434.975-435.025
M-CUBED/EXP-1 PRIME 23 Nov 12:49:43 12:52:52 26° 59° (ENE) 12:56:16 437.505
DUCHIFAT 1 23 Nov 12:51:30 12:53:16 12° 272° (W) 12:55:01 145.980
50 SAT 23 Nov 12:53:58 12:55:30 13° 91° (E) 12:57:01 437.505
AO-85 23 Nov 13:00:58 13:05:11 33° 242° (WSW) 13:09:38 145.980
Gurwin Techsat 1B 23 Nov 13:12:01 13:17:20 74° 256° (WSW) 13:22:41 435.225
UKube-1 23 Nov 13:24:50 13:28:05 20° 93° (E) 13:31:18 .
BUGSAT 1 23 Nov 13:32:26 13:35:04 16° 269° (W) 13:37:43 437.445
ESTCUBE 1 23 Nov 13:40:27 13:42:04 12° 304° (NW) 13:43:41 437.505/2401.250
O/OREOS (USA 219) 23 Nov 13:41:30 13:46:04 61° 299° (WNW) 13:50:39 437.305
VELOX 1 23 Nov 13:46:58 13:51:11 41° 291° (WNW) 13:55:21 145.980
YUBILEINY 23 Nov 13:47:44 13:51:35 13° 45° (NE) 13:55:25 435.215
AO-7 23 Nov 13:56:48 14:04:56 64° 63° (ENE) 14:13:07 .
Oscar 19 23 Nov 14:07:15 14:10:51 19° 270° (W) 14:14:29 437.125/150
NO-84 23 Nov 14:10:38 14:13:45 27° 133° (SE) 14:17:05 435.350 FM
DX 1 23 Nov 14:23:42 14:28:05 69° 288° (WNW) 14:32:25 434.975-435.025
M-CUBED/EXP-1 PRIME 23 Nov 14:23:53 14:27:11 31° 259° (W) 14:30:44 437.505
ITAMSAT 1 23 Nov 14:24:16 14:29:20 52° 68° (ENE) 14:34:24 435.822/435.867
50 SAT 23 Nov 14:24:43 14:27:47 40° 289° (WNW) 14:30:48 437.505
SPROUT 23 Nov 14:25:26 14:27:18 13° 302° (WNW) 14:29:09 437.525
Gurwin Techsat 1B 23 Nov 14:56:56 14:58:13 11° 275° (W) 14:59:30 435.225
UKube-1 23 Nov 15:00:10 15:04:19 46° 291° (WNW) 15:08:27 .
MOZHAYETS 4 23 Nov 15:18:59 15:23:31 59° 101° (E) 15:28:02
BEESAT 23 Nov 15:20:54 15:25:29 45° 99° (E) 15:30:02 436.000
O/OREOS (USA 219) 23 Nov 15:24:43 15:26:29 12° 320° (NW) 15:28:14 437.305
